Location: Unspecified
(0.0000°N, 0.0000°E)
Time: 15:03:27
(UTC+00:00)

Envisat - Pass Details

Date: 11 April 2021
Orbit: 764 x 766 km, 98.1° (Epoch: 16 April)

Event Time Altitude Azimuth Distance (km) Brightness Sun altitude
Rises 04:21:59 0° 37° (NE) 3,215 6.9 -24.5°
Reaches altitude 10° 04:24:43 10° 51° (NE) 2,292 6.3 -23.8°
Maximum altitude 04:28:38 23° 102° (ESE) 1,588 5.3 -22.9°
Drops below altitude 10° 04:32:34 10° 153° (SSE) 2,301 5.7 -21.9°
Sets 04:35:18 0° 168° (SSE) 3,229 6.3 -21.2°
